Change the Weather History Date:

Friday, November 8, 2013

  Actual Average Record
Temperature  
Mean Temperature 54 °F 62 °F  
Max Temperature 66 °F 73 °F 83 °F (1986)
Min Temperature 42 °F 51 °F 28 °F (1951)
Degree Days  
Heating Degree Days 11 5  
Month to date heating degree days 31 35  
Since 1 July heating degree days 61 90  
Cooling Degree Days 0 2  
Month to date cooling degree days 5 17  
Year to date cooling degree days 2485 2479  
Growing Degree Days 4 (Base 50)    
Moisture  
Dew Point 33 °F    
Average Humidity 52    
Maximum Humidity 76    
Minimum Humidity 27    
Precipitation  
Precipitation 0.00 in 0.18 in 3.11 in (1926)
Month to date precipitation 0.28 1.36  
Year to date precipitation 58.76 57.32  
Snow  
Snow 0.00 in 0.00 in 0.00 in (2002)
Month to date snowfall 0.0 0.0  
Since 1 July snowfall 0.0 0.0  
Snow Depth 0.00 in    
Sea Level Pressure  
Sea Level Pressure 30.25 in    
Wind  
Wind Speed 11 mph (NNE)    
Max Wind Speed 22 mph    
Max Gust Speed 29 mph    
Visibility 10 miles    
Events      
T = Trace of Precipitation, MM = Missing Value Source: NWS Daily Summary

Daily Weather History Graph

Daily Weather History Graph

Search for Another Location

Airport or City:

Trip Planner

Search our weather history database for the weather conditions in past years. The results will help you decide how hot, cold, wet, or windy it might be!

Date:

Astronomy

Nov. 08, 2013 Rise Set
Actual Time 6:13 AM CST 4:59 PM CST
Civil Twilight 5:48 AM CST 5:24 PM CST
Nautical Twilight 5:19 AM CST 5:53 PM CST
Astronomical Twilight 4:51 AM CST 6:21 PM CST
Moon 11:08 AM CST (11/8) 10:18 PM CST (11/8)
Length of Visible Light 11h 36m
Length of Day
10h 45m
Waxing Crescent, 33% of the Moon is Illuminated
Nov 8
Waxing Crescent
Nov 9
First Quarter
Nov 17
Full
Nov 25
Last Quarter
Dec 2
New

Hourly Weather History & Observations

Time (CST) Temp. Windchill Dew Point Humidity Pressure Visibility Wind Dir Wind Speed Gust Speed Precip Events Conditions
12:56 AM 48.0 °F - 33.1 °F 56% 30.25 in 10.0 mi North 15.0 mph 23.0 mph N/A   Clear
1:56 AM 46.9 °F - 33.1 °F 59% 30.25 in 10.0 mi North 13.8 mph - N/A   Clear
2:56 AM 46.0 °F 39.9 °F 33.1 °F 61% 30.26 in 10.0 mi North 13.8 mph - N/A   Clear
3:56 AM 45.0 °F 38.9 °F 33.1 °F 63% 30.27 in 10.0 mi North 12.7 mph - N/A   Clear
4:56 AM 43.0 °F 37.2 °F 33.1 °F 68% 30.28 in 10.0 mi North 10.4 mph - N/A   Clear
5:56 AM 42.1 °F 36.1 °F 33.1 °F 70% 30.30 in 10.0 mi North 10.4 mph - N/A   Partly Cloudy
6:56 AM 44.1 °F 38.6 °F 32.0 °F 63% 30.31 in 10.0 mi NNE 10.4 mph - N/A   Clear
7:56 AM 48.9 °F - 30.9 °F 50% 30.32 in 10.0 mi NNE 13.8 mph - N/A   Partly Cloudy
8:56 AM 52.0 °F - 30.0 °F 43% 30.33 in 10.0 mi NE 18.4 mph 25.3 mph N/A   Partly Cloudy
9:56 AM 57.0 °F - 30.9 °F 37% 30.31 in 10.0 mi NE 16.1 mph 23.0 mph N/A   Scattered Clouds
10:56 AM 60.1 °F - 30.0 °F 32% 30.29 in 10.0 mi NNE 17.3 mph 24.2 mph N/A   Scattered Clouds
11:56 AM 63.0 °F - 28.9 °F 28% 30.27 in 10.0 mi NNE 13.8 mph - N/A   Mostly Cloudy
12:56 PM 64.0 °F - 30.0 °F 28% 30.22 in 10.0 mi NNE 13.8 mph - N/A   Mostly Cloudy
1:56 PM 64.9 °F - 30.9 °F 28% 30.21 in 10.0 mi NNE 13.8 mph - N/A   Mostly Cloudy
2:56 PM 64.9 °F - 30.9 °F 28% 30.20 in 10.0 mi NNE 10.4 mph - N/A   Scattered Clouds
3:56 PM 64.0 °F - 32.0 °F 30% 30.19 in 10.0 mi NNE 9.2 mph - N/A   Partly Cloudy
4:56 PM 57.9 °F - 35.1 °F 42% 30.20 in 10.0 mi North 6.9 mph - N/A   Partly Cloudy
5:56 PM 54.0 °F - 36.0 °F 51% 30.22 in 10.0 mi North 5.8 mph - N/A   Partly Cloudy
6:56 PM 50.0 °F - 37.0 °F 61% 30.23 in 10.0 mi North 5.8 mph - N/A   Partly Cloudy
7:56 PM 50.0 °F - 37.0 °F 61% 30.24 in 10.0 mi NNE 4.6 mph - N/A   Clear
8:56 PM 48.0 °F - 37.9 °F 68% 30.24 in 10.0 mi NNE 4.6 mph - N/A   Clear
9:56 PM 48.0 °F - 37.0 °F 66% 30.24 in 10.0 mi NE 4.6 mph - N/A   Clear
10:56 PM 45.0 °F 43.5 °F 37.0 °F 74% 30.23 in 10.0 mi NE 3.5 mph - N/A   Clear
11:56 PM 45.0 °F 41.8 °F 37.0 °F 74% 30.21 in 10.0 mi NE 5.8 mph - N/A   Clear